Dewpoint
65 64 64 65 65 65 65 64 64 63 63 64 63 63 64 65 67 66 65 66 66 66 66 66 67 68 69 67 67 67 67 65 66 65 65 66 64 64 64 63 63 63
64 65 67 65 67 66 63 63 64 63 64 64 64 63 65 66 66 66 65 66 67 66 65 66 66 66 66 67 66 65 64 65 64 67 65 64 64 63 64 64 64 64
64 66 66 64 64 64 63 64 65 64 64 63 63 64 65 67 65 65 66 65 65 65 65 65 65 66 66 66 66 66 65 64 64 65 66 65 64 64 64 64 64 64
65 65 64 63 62 62 63 65 65 64 63 63 62 64 66 66 65 65 65 69 65 65 65 65 65 65 65 65 65 65 65 65 65 65 65 64 66 65 64 64 65 64
65 64 63 63 63 64 65 64 64 63 62 62 62 64 66 65 64 64 64 64 65 65 64 65 65 65 65 65 65 64 65 65 65 65 64 63 64 65 65 65 63 63
65 65 64 63 64 64 64 63 62 62 62 62 63 65 65 65 64 64 64 63 64 64 64 64 63 64 65 64 64 64 64 65 64 64 64 64 64 64 65 64 63 62
64 64 63 64 64 63 62 62 62 64 62 62 63 62 64 64 63 62 62 63 63 64 62 63 63 63 64 64 63 64 64 64 64 64 64 63 64 63 64 63 63 62
65 64 64 64 63 63 63 63 63 64 64 63 62 62 63 63 62 62 63 63 63 63 63 63 63 64 64 64 64 64 64 65 65 64 63 63 61 61 62 63 62 61
65 64 64 64 63 63 63 63 64 63 64 63 63 63 63 63 62 62 63 63 63 63 63 63 63 64 64 64 64 63 63 63 64 63 63 62 61 61 62 61 61 62
65 64 64 63 62 63 63 63 64 64 65 64 63 63 63 64 64 64 63 63 62 62 63 63 63 64 64 64 64 64 63 63 63 63 63 63 63 62 61 61 61 61
64 64 64 63 63 63 63 64 64 63 63 63 63 63 63 63 63 64 63 63 63 62 63 63 63 64 64 65 65 65 64 64 63 62 62 62 62 62 64 62 62 61
65 64 64 64 64 63 63 63 63 63 61 62 62 61 61 61 61 62 63 62 62 63 63 63 63 64 64 64 65 65 64 63 63 62 61 61 61 61 61 61 61 61
65 65 64 64 64 63 63 63 62 61 59 58 61 59 59 59 59 59 62 61 62 62 63 63 63 63 63 64 64 64 64 63 62 61 61 61 61 62 62 62 62 61
65 65 64 64 63 63 62 62 61 60 59 60 62 60 59 59 60 60 59 62 61 60 60 62 61 61 61 62 64 64 64 63 62 62 61 61 61 62 62 62 62 61
65 65 64 64 63 62 62 62 61 61 60 61 63 61 63 61 60 60 59 61 60 60 60 60 61 61 61 62 64 64 64 63 62 62 62 61 61 61 61 61 61 61
64 65 64 63 63 62 62 62 62 61 61 61 61 61 62 63 61 61 60 59 59 59 60 61 62 62 64 64 65 65 63 63 62 62 62 62 62 61 60 60 60 60
64 64 64 63 63 62 62 62 61 61 61 61 61 61 61 62 62 61 61 60 59 58 59 61 61 61 62 62 63 64 64 62 62 63 63 62 62 60 60 60 60 60
64 64 63 63 62 62 62 61 61 61 61 61 61 61 62 62 61 61 60 59 60 60 59 59 59 62 59 60 61 62 63 64 63 63 63 62 61 60 60 60 60 60
64 64 63 63 62 62 62 62 61 61 61 61 61 61 62 62 62 61 61 61 61 60 59 60 60 61 59 59 59 60 61 63 62 62 62 61 61 60 60 60 60 60
64 63 63 62 62 62 62 61 61 61 61 61 62 62 62 62 62 61 61 61 61 60 60 60 60 61 59 58 58 58 59 61 61 61 61 61 61 61 61 60 60 60
62 62 62 62 62 62 62 61 61 61 61 62 62 62 61 61 61 61 61 61 60 61 60 60 60 60 57 56 55 56 57 60 60 61 61 61 61 61 61 61 60 60
62 61 61 61 61 62 61 61 61 61 61 62 63 62 62 62 62 61 61 61 61 61 60 59 59 58 56 55 55 55 58 60 59 59 60 60 60 60 61 61 61 61
62 61 61 61 62 62 61 61 61 61 62 62 63 62 62 61 61 61 61 61 60 60 59 58 59 59 55 54 54 55 57 58 59 60 60 60 60 60 61 61 61 61
63 62 62 62 62 62 62 62 61 61 62 64 63 62 62 61 61 61 61 61 60 59 59 58 58 58 54 52 53 54 58 58 59 59 59 59 60 60 60 60 60 63
63 63 62 62 62 62 62 62 62 63 63 64 63 63 63 63 63 62 62 62 61 60 62 60 58 58 53 52 53 54 59 60 60 60 58 59 59 59 58 58 57 59
64 64 63 62 62 62 63 63 63 63 63 63 64 64 63 62 63 62 61 61 61 60 59 61 59 60 57 51 51 52 56 60 60 59 59 57 56 57 57 55 54 54